Showing default

NUSAT-53 (JANE GOODALL), 68432

Orbit data source: Space-Track

NUSAT-53 (JANE GOODALL), 68432 is a payload satellite owned by URUGUS S.A. (AR) in SSO that was launched on Mon, 30 Mar 2026 UTC via an FALCON 9 launch vehicle from the Air Force Western Test Range (AFWTR). Payload-class satellites include a variety of spacecraft equipped with specific instruments for various scientific and technological missions. These include communications satellites like Starlink; space stations such as the ISS; scientific satellites like the Hubble; Earth observation satellites from companies like Planet Labs, Umbra, and HawkEye 360; GPS; miniature CubeSats for education and research; and military/defense satellites.

Loading next visibility...
Identifier
68432, 2026-067S
Orbit
SSO
Country
Flag of ARAR / ARGN
Related business
Manufacturer
URUGUS S.A.
Mission
Operational Commercial Imaging
Bus & Motor
NEWSAT V, Unknown motor
Mass
41.5 kg wet, 38.5 kg dry
Launch date (UTC)
2026-03-30 (6 months ago)
Launch vehicle
FALCON 9
Launch site
Air Force Western Test Range (AFWTR)
Object type
Payload
Rocket body
Debris
Shape & HBR
Box, 1.0 m
Radar Cross Section
0.542 m², Medium (>0.1 m² and < 1m²)

Expand to show TLE details & history
Last TLE update: 7 hours ago

TLE from 7 hours ago
0 NUSAT-53 (JANE GOODALL)
1 68432U 26067S   26263.12735959  .00003631  00000-0  17513-3 0  9997
2 68432  97.4662 220.4246 0004378  65.8433 294.3259 15.19323715 26357
Epoch: 2026-09-20T03:03Z
TLE epoch observation values (Epoch: 2026-09-20T03:03:23.868Z)
Latitude
-0.00002°
Longitude
175.54915°
Altitude
509.73 km
Speed
7.61 km/s
True Right ascension
14h 41m 41s
True Declination
0° 00' 00"
Sunlit
Object was in daylight at epoch
Visualization orbit readout
Latitude
Unknown
Longitude
Unknown
Altitude
Unknown
Speed
Unknown
Apparent Right ascension
Unknown
Apparent Declination
Unknown
Sunlit
N/A
Visualization observer readout
Local Sidereal Time
03:11:26
Azimuth
Unknown
Elevation
Unknown
Doppler factor
Unknown
Orbital elements
Apogee altitude
507.866 km
Perigee altitude
501.839 km
Semi-major axis
6,882.99 km
Eccentricity
0.00044
Inclination
97.4662°
RAAN
220.4246°
Arg. of periapsis
65.8433°
True anomaly
294.28018°
Mean anomaly
294.3259°
Eccentric anomaly
294.30304°
Mean motion
3.80082 °/min
Orbital period
94.72 mins
BSTAR
0.00017513
Loading maneuver chart data...
Computing Atmospheric mass density...
Loading historical data...
Loading historical data...
Loading historical data...
Loading historical data...
Loading historical data...
Loading historical data...
Loading historical data...

Documentation

Showing up to 5 results
|